Location: Unspecified
(40.7945°N, 0.0000°E)
Time: 02:51:34
(UTC+00:00)

Altair - Pass Details

Date: 23 January 2021
Orbit: 1501 x 1682 km, 47.2° (Epoch: 01 March)

Event Time Altitude Azimuth Distance (km) Brightness Sun altitude
Rises 03:19:26 0° 195° (SSW) 4,811 - -44.8°
Reaches altitude 10° 03:23:02 10° 185° (S) 3,854 - -44.2°
Exits shadow 03:27:56 25° 158° (SSE) 2,881 8.9 -43.3°
Maximum altitude 03:31:08 30° 129° (SE) 2,671 8.9 -42.7°
Drops below altitude 10° 03:39:22 10° 74° (ENE) 3,943 10.3 -41.1°
Sets 03:43:04 0° 64° (ENE) 4,939 11.0 -40.4°
